CZ-4 DEB, 26151

Orbit data source: Space-Track

CZ-4 DEB, 26151 is space debris in SSO originally from a launch on Thu, 14 Oct 1999 UTC launched from the Taiyaun Space Center, China (TSC). Debris objects in space refer to the collection of defunct objects orbiting the Earth. Examples of debris include non-operational satellites, rocket bodies, and fragments generated from explosions, collisions, or faulty payload assembly.

Loading next visibility...
Identifier
26151, 1999-057AM
Orbit
SSO
Country
Flag of CNCN / PRC
Related business
Manufacturer
Unknown
Mission
Spacecraft
Bus & Motor
Unknown
Mass
Unknown
Launch date (UTC)
1999-10-14 (26 years ago)
Launch vehicle
Unknown
Launch site
Taiyaun Space Center, China (TSC)
Object type
Payload
Rocket body
Debris
Shape & HBR
Unknown
Radar Cross Section
Medium (>0.1 m² and <1 m²)

Expand to show TLE details & history
Last TLE update: 1 day ago

TLE from 1 day ago
0 CZ-4 DEB
1 26151U 99057AM  25241.89592304  .00001218  00000-0  11925-2 0  9991
2 26151  99.4201 199.7643 0612018 138.9173 292.4704 13.18705773220443
Epoch: 2025-08-29T21:30Z
TLE epoch observation values (Epoch: 2025-08-29T21:30:07.75Z)
Latitude
63.22747°
Longitude
-120.20098°
Altitude
1,048.428 km
Speed
7.407 km/s
True Right ascension
12h 02m 40s
True Declination
63° 05' 40"
Sunlit
Object was in daylight at epoch
Visualization orbit readout
Latitude
Unknown
Longitude
Unknown
Altitude
Unknown
Speed
Unknown
Apparent Right ascension
Unknown
Apparent Declination
Unknown
Sunlit
N/A
Visualization observer readout
Local Sidereal Time
16:12:32
Azimuth
Unknown
Elevation
Unknown
Doppler factor
Unknown
Orbital elements
Apogee altitude
1,649.981 km
Perigee altitude
723.983 km
Semi-major axis
7,565.119 km
Eccentricity
0.0612
Inclination
99.4201°
RAAN
199.7643°
Arg. of periapsis
138.9173°
True anomaly
285.80978°
Mean anomaly
292.4704°
Eccentric anomaly
289.158°
Mean motion
3.29852 °/min
Orbital period
109.14 mins
BSTAR
0.0011925
Loading maneuver chart data...
Computing Atmospheric mass density...
Loading historical data...
Loading historical data...
Loading historical data...
Loading historical data...
Loading historical data...
Loading historical data...
Loading historical data...

Documentation

Showing up to 5 results
|